TimeCDT,TemperatureF,Dew PointF,Humidity,Sea Level PressureIn,VisibilityMPH,Wind Direction,Wind SpeedMPH,Gust SpeedMPH,PrecipitationIn,Events,Conditions,WindDirDegrees,DateUTC
12:51 AM,61.0,57.0,87,29.96,10.0,Calm,Calm,-,N/A,,Clear,0,2012-10-10 05:51:00
1:51 AM,59.0,55.9,90,29.94,10.0,SSW,6.9,-,N/A,,Clear,210,2012-10-10 06:51:00
2:51 AM,63.0,60.1,90,29.94,10.0,Calm,Calm,-,N/A,,Clear,0,2012-10-10 07:51:00
3:51 AM,61.0,59.0,93,29.94,9.0,NNE,3.5,-,N/A,,Clear,30,2012-10-10 08:51:00
4:51 AM,63.0,60.1,90,29.98,10.0,NE,11.5,-,N/A,,Clear,40,2012-10-10 09:51:00
5:51 AM,60.1,57.9,93,30.01,8.0,East,9.2,-,N/A,,Clear,80,2012-10-10 10:51:00
6:51 AM,57.9,57.0,97,30.04,7.0,North,3.5,-,N/A,,Clear,10,2012-10-10 11:51:00
7:37 AM,57.2,57.2,100,30.10,7.0,Calm,Calm,-,N/A,,Mostly Cloudy,0,2012-10-10 12:37:00
7:51 AM,60.1,57.9,93,30.06,8.0,Calm,Calm,-,N/A,,Overcast,0,2012-10-10 12:51:00
8:37 AM,62.6,59.0,88,30.13,7.0,NE,5.8,-,N/A,,Overcast,50,2012-10-10 13:37:00
9:41 AM,60.8,55.4,82,30.16,10.0,NE,9.2,-,N/A,,Overcast,40,2012-10-10 14:41:00
9:51 AM,61.0,53.1,75,30.12,10.0,NE,10.4,-,N/A,,Overcast,50,2012-10-10 14:51:00
10:51 AM,62.1,53.1,72,30.15,10.0,ENE,8.1,-,N/A,,Overcast,60,2012-10-10 15:51:00
11:51 AM,62.1,53.1,72,30.15,10.0,ENE,9.2,-,N/A,,Overcast,60,2012-10-10 16:51:00
12:51 PM,66.0,55.0,68,30.13,10.0,NNE,10.4,-,N/A,,Overcast,30,2012-10-10 17:51:00
1:51 PM,70.0,57.0,63,30.12,10.0,North,9.2,-,N/A,,Overcast,350,2012-10-10 18:51:00
1:59 PM,69.8,57.2,64,30.15,10.0,NNW,9.2,-,N/A,,Mostly Cloudy,340,2012-10-10 18:59:00
2:51 PM,73.0,57.9,59,30.08,10.0,NNW,8.1,-,N/A,,Clear,330,2012-10-10 19:51:00
3:51 PM,75.0,60.1,60,30.05,10.0,NNE,4.6,-,N/A,,Clear,30,2012-10-10 20:51:00
4:51 PM,75.9,61.0,60,30.04,10.0,NE,6.9,-,N/A,,Clear,40,2012-10-10 21:51:00
5:51 PM,75.0,61.0,62,30.03,10.0,NE,9.2,-,N/A,,Clear,50,2012-10-10 22:51:00
6:51 PM,73.0,61.0,66,30.04,10.0,NE,8.1,-,N/A,,Clear,40,2012-10-10 23:51:00
7:51 PM,70.0,60.1,71,30.04,10.0,NE,8.1,-,N/A,,Clear,50,2012-10-11 00:51:00
8:51 PM,66.9,59.0,76,30.06,10.0,NE,6.9,-,N/A,,Clear,50,2012-10-11 01:51:00
9:51 PM,64.0,57.9,80,30.08,10.0,NE,5.8,-,N/A,,Clear,50,2012-10-11 02:51:00
10:51 PM,63.0,57.9,84,30.09,10.0,NE,8.1,-,N/A,,Clear,50,2012-10-11 03:51:00
11:51 PM,61.0,57.9,90,30.09,10.0,NE,5.8,-,N/A,,Clear,40,2012-10-11 04:51:00